User: anonymous   Login
Location: Allen Lane School
(37.8198°N, 89.7382°W)
Time: 05:34:25
(UTC+00:00)
Language:

Cosmos 44 - Orbit

View from above orbital plane
View from above orbital plane
View from above satellite
View from above satellite

Ground track
Ground track

The orbit data is extracted from the following two-line orbital elements,

1 00876U 64053A   22139.15712313  .00000324  00000-0  78509-4 0  9991
2 00876  65.0628  41.7347 0125058 131.5540 229.6367 14.63895927 70439
Epoch (UTC): 19 May 2022 03:46:15
Eccentricity: 0.0125058
inclination: 65.0628°
perigee height: 592 km
apogee height: 769 km
right ascension of ascending node: 41.7347°
argument of perigee: 131.5540°
revolutions per day: 14.63895927
mean anomaly at epoch: 229.6367°
orbit number at epoch: 7043

The dashed part of the orbit path shows where the satellite is in the earth's shadow,  

DLR